Submittal Forms
Current Contests
Recent Contests

Club Activity Tracker - Interest Group RTTY (from club selection on form)

Recent postings for the selected club or group are listed below. Other than the call used, all calls listed are only those associated with the club or group. Click on a call to see the details of the posting.
Status Key: new=new posting, update=update prior posting, move=change club/group, delete=delete prior posting.

Sort by   for past

TimestampCallContestClassPowerScoreStatus
2021-05-09 14:38:32DL1DTLVolta RTTYSOABHP20,697,600new6411
2021-05-09 14:32:13DL1ZBOVolta RTTYSOABLP15,664,740new6411
2021-05-09 13:55:13DJ3IWVolta RTTYSOAB-6HP2,498,414new6411
2021-05-09 13:51:47OZ9GAVolta RTTYSOABHP299,861,130new6411
2021-05-09 13:44:52DJ1OJVolta RTTYSOABLP27,625,924new6411
2021-05-09 12:26:24DF2SDVolta RTTYSOABHP646,911,720new6411
2021-05-09 12:17:36GU0SUPVolta RTTYSOABLP12,660,226new6411
2021-05-09 11:43:13WM5DXVolta RTTYSOSB/20HP1,435,302new6411
2021-05-02 20:11:39DJ1OJARISO MixedLP175,551new6393
2021-05-02 18:41:25OZ9GAARISO RTTYLP279,000new6393
 
2021-05-02 17:04:37G0FGIARISO RTTYLP176,416new6393
2021-05-02 16:05:52WM5DXARISO RTTYHP38,258new6393
2021-05-02 14:31:36F4DSKARISO RTTYLP253,643new6393
2021-05-02 12:36:13DF2SDARISO RTTYHP867,601new6393
2021-05-02 12:35:59VU2DEDARISO MixedHP73,320new6393
2021-05-02 12:14:13II1R(IW1CBG)ARISO RTTYLP24,660new6393
2021-05-02 12:01:24F8CRSARISO MixedLP368,173new6393
2021-05-02 09:49:45DJ3IWARISO RTTYHP16,472new6393
2021-04-27 10:53:42PB7ZSPDX RTTYSOABHP1,740,775new6372
2021-04-26 12:52:11PD1RPSPDX RTTYSOABLP1,143,675update6372
 
2021-04-26 10:25:49G0FGISPDX RTTYSOABLP1,150,620new6372
2021-04-25 22:15:51OZ9GASPDX RTTYSOABLP1,934,484new6372
2021-04-25 22:15:22ON5GQIG-RY RTTYSingle OpLP104,715new6340
2021-04-25 21:30:53OZ9GABARTG 75Single OpLP5,106new6374
2021-04-25 16:30:14F4DSKSPDX RTTYSOABLP2,098,704new6372
2021-04-25 16:19:48DL7VOGSPDX RTTYSOABLP27,342new6372
2021-04-25 15:54:11VU2IBISPDX RTTYSOABHP147,956new6372
2021-04-25 15:25:49DJ1OJSPDX RTTYSOABLP316,800new6372
2021-04-25 14:58:07DL1ZBOSPDX RTTYSOABLP149,736new6372
2021-04-25 14:37:21F8CRSHelvetiaSO CWLP37,422new6373
 
2021-04-25 13:50:10DF2SDSPDX RTTYSOABHP6,388,524new6372
2021-04-25 13:24:57DJ3IWSPDX RTTYSOABHP40,950new6372
2021-04-25 12:19:11VU2DEDSPDX RTTYSOABLP248,760new6372
2021-04-25 12:17:55GU0SUPSPDX RTTYSOABLP509,352new6372
2021-04-25 12:10:18IW1CBGSPDX RTTYSOABLP133,650new6372
2021-04-14 07:12:08VU2DEDIG-RY RTTYSingle OpHP2,508new6340
2021-04-13 16:41:25M3AWDIG-RY RTTYSingle OpLP44,688update6340
2021-04-13 16:28:41M3AWDGagarin DXSOABLP176,250new6338
2021-04-13 06:00:47VU2IBIIG-RY RTTYSingle OpHP12,852new6340
2021-04-12 12:51:20IW1CBGIG-RY RTTYSingle OpLP32,994new6340
 
2021-04-12 09:23:12G0FGIIG-RY RTTYSingle OpLP50,530new6340
2021-04-12 09:16:08DL7VOGIG-RY RTTYSingle OpHP77,916new6340
2021-04-11 20:02:50EA8OMIG-RY RTTYSingle OpLP35,990new6340
2021-04-11 18:47:310Z9GAIG-RY RTTYSingle OpLP103,212new6340
2021-04-11 18:36:59DQ9Y(DF2SD)IG-RY RTTYSingle OpHP148,596new6340
2021-04-11 18:12:22OH2PMIG-RY RTTYSingle OpHP156,618new6340
2021-04-11 18:06:42MW9W(GW0KRL)IG-RY RTTYSingle OpLP87,472new6340
2021-04-11 17:54:15DL1DTLIG-RY RTTYSingle OpHP70,550new6340
2021-04-11 17:17:44F4DSKIG-RY RTTYSingle OpLP49,104new6340
2021-04-11 16:02:28GU0SUPIG-RY RTTYSingle OpLP19,855new6340
2021-04-11 15:21:48DJ3IWIG-RY RTTYSingle OpHP16,074new